Regional Weather Roundup
Issued by NWS

Home | Current Version | Previous Version | Graphics & Text | Print | Product List | Glossary On
Versions: 1 2 3 4 5 6 7 8 9 10 11 12 13 14 15 16 17 18 19 20 21 22 23 24 25 26 27 28 29 30 31 32 33 34 35 36 37 38 39 40 41 42 43 44 45 46 47 48 49 50
000
ASUS43 KLOT 280813
RWRIL

ILLINOIS REGIONAL WEATHER ROUNDUP
NATIONAL WEATHER SERVICE CHICAGO/ROMEOVILLE IL
300 AM CDT FRI AUG 28 2015

NOTE: "FAIR" INDICATES FEW OR NO CLOUDS BELOW 12,000 FEET WITH NO
SIGNIFICANT WEATHER AND/OR OBSTRUCTIONS TO VISIBILITY.

* THESE STATIONS ARE NOT UNDER NWS QUALITY CONTROL. THEY ALSO MAY NOT
  REPORT WEATHER SUCH AS PRECIPITATION OR FOG.

ILZ001-002-007-009-015-016-024-280900-
NORTHWEST ILLINOIS

CITY           SKY/WX    TMP DP  RH WIND       PRES   REMARKS
MOLINE         CLOUDY    62  58  86 SE3       30.08F
STERLING*      CLOUDY   N/A N/A N/A CALM      30.09S
SAVANNA*       CLOUDY    63  57  81 S5        30.09F
$$

ILZ003-004-008-010-011-017-018-280900-
NORTH CENTRAL ILLINOIS

CITY           SKY/WX    TMP DP  RH WIND       PRES   REMARKS
ROCKFORD       MOCLDY    59  55  87 S3        30.13S
FREEPORT*      CLOUDY    58  56  92 SE5       30.13R
ROCHELLE*      MOCLDY    57  56  94 CALM      30.12R FOG
DE KALB*       PTCLDY    59  56  89 SE8       30.12S
PERU*          MOCLDY    63  57  82 SE5       30.12R
$$

ILZ005-006-012>014-019>023-280900-
NORTHEAST ILLINOIS

CITY           SKY/WX    TMP DP  RH WIND       PRES   REMARKS
CHICAGO-OHARE  MOCLDY    59  56  89 SE3       30.12S
CHICAGO-MIDWAY PTCLDY    64  55  72 SE5       30.13R
AURORA         PTCLDY    56  53  90 E3        30.12F FOG
LANSING*       CLEAR     55  54  95 CALM      30.13S
JOLIET*        CLEAR     60  57  88 SE3       30.12S
WAUKEGAN       PTCLDY    54  53  97 SE3       30.12S FOG
DUPAGE AIRPORT PTCLDY    56  53  90 CALM      30.12S
KANKAKEE*      CLEAR     56  55  97 CALM      30.13F
WHEELING       CLEAR     57  54  89 CALM      30.14S
MORRIS*        PTCLDY    58  55  90 CALM      30.11S
ROMEOVILLE*    PTCLDY    57  54  89 SE7       30.12S
NORTHERLY ISL    N/A     62  58  86 S3          N/A
$$

LMZ740>746-280900-
SOUTHERN LAKE MICHIGAN

STATION/POSITION SKY/WX   TEMP    WIND        PRES    VSBY  WAVE
                          AIR SEA DIR/SP/G                  HT/PER
                          (F)     (DEG/KT/KT) (MB)    (MI)  (FT/S)
SOUTHERN BUOY              67 68  170/ 10/ 14 1020.2S         1
WILMETTE HARBOR            61 59  330/  4/  6   N/A           1
HARRISON CRIB              66     150/ 12/ 14   N/A
BURNHAM HARBOR             62     160/  3/  5   N/A
CALUMET HARBOR             65     110/  6/  8   N/A
BURNS HARBOR               64     160/  7/ 11 1021.0S
MICHIGAN CITY              60     120/  8/  8   N/A
MICHIGAN CITY 6N           64 70  160/ 12/ 16   N/A           1
ST. JOSEPH                 63 70  180/ 10/ 14   N/A           1
$$

ILZ025>027-034>036-040-047-049-050-058-095>099-280900-
WEST-CENTRAL ILLINOIS

CITY           SKY/WX    TMP DP  RH WIND       PRES   REMARKS
QUINCY         CLEAR     61  57  87 SE7       30.08F
GALESBURG*     MOCLDY    59  57  92 E5        30.09F
MACOMB*        PTCLDY    54  54  98 CALM      30.11F
JACKSONVILLE*  CLEAR     58  56  93 CALM      30.10S
PITTSFIELD*    CLEAR     58  56  94 CALM      30.11S
$$

ILZ028>032-037-038-041>044-048-051>054-059>061-280900-
CENTRAL ILLINOIS

CITY           SKY/WX    TMP DP  RH WIND       PRES   REMARKS
PONTIAC        CLEAR     58  57  97 SE6       30.12F
BLOOMINGTON    CLEAR     62  58  87 SE7       30.13S
DECATUR        CLEAR     58  55  90 CALM      30.12S
PEORIA         PTCLDY    66  58  75 SE3       30.11R
LACON*         MOCLDY    59  56  90 SW3       30.10R
LINCOLN*       CLEAR     60  56  89 CALM      30.12R
SPRINGFIELD    CLEAR     59  57  93 SE3       30.10F
TAYLORVILLE    CLEAR     55  55 100 CALM      30.12R FOG
$$

ILZ033-039-045-046-055>057-062-063-280900-
EAST-CENTRAL ILLINOIS

CITY           SKY/WX    TMP DP  RH WIND       PRES   REMARKS
CHAMPAIGN      CLEAR     60  57  89 E5        30.12S
RANTOUL*       CLEAR     63  58  86 CALM      30.12S
MATTOON        CLEAR     61  58  90 CALM      30.11S
PARIS*         PTCLDY    61  60  97 SE3       30.13R
$$

ILZ079-100>102-280900-
SOUTHWEST ILLINOIS

CITY           SKY/WX    TMP DP  RH WIND       PRES   REMARKS
ALTON          CLEAR     57  56  99 CALM      30.10S FOG
BELLEVILLE     CLEAR     59  59 100 CALM      30.09R FOG
CAHOKIA*       CLEAR     60  57  89 CALM      30.10S
SPARTA*        CLEAR     60  59  94 CALM      30.11R
$$

ILZ064>066-069>071-074>076-080>082-084>086-088>090-092>094-280900-
SOUTH-CENTRAL ILLINOIS

CITY           SKY/WX    TMP DP  RH WIND       PRES   REMARKS
CARBONDALE     FOG       57  56  96 CALM      30.09S VSB 1/2
CAIRO*         CLEAR     56  56 100 N3        30.08S
EFFINGHAM*     CLEAR     58  56  92 CALM      30.12S
MARION         PTCLDY    59  57  94 CALM      30.10S FOG
MT. VERNON     CLEAR     55  50  82 CALM      30.12R
CENTRALIA*     CLEAR     56  56 100 CALM      30.10S
SALEM*         CLEAR     58  56  94 CALM      30.11S
METROPOLIS*    CLEAR     56  56 100 CALM      30.09S FOG
$$

ILZ067-068-072-073-078-083-087-091-280900-
SOUTHEAST ILLINOIS

CITY           SKY/WX    TMP DP  RH WIND       PRES   REMARKS
LAWRENCEVILLE  CLEAR     59  57  93 E3        30.12S
FLORA*         CLEAR     56  55  95 CALM      30.12R
FAIRFIELD*     CLEAR     59  58  98 CALM      30.11R
HARRISBURG*    CLEAR     57  56  95 CALM      30.10S
ROBINSON*      CLEAR     54  53  96 CALM      30.13S FOG
CARMI*           N/A     55  55 100 CALM      30.10S FOG
$$

ABBREVIATIONS USED IN REMARKS
   TC - TEMPERATURE IN CELSIUS
  WCI - WIND CHILL INDEX
   HX - HEAT INDEX
  VSB - VISIBILITY
$$




USA.gov is the U.S. government's official web portal to all federal, state and local government web resources and services.